Flag for Germany Weather past 2 weeks in Höxter, North Rhine-Westphalia, Germany

Now
41 °F

Overcast.


Feels Like: 41 °F
Forecast: 33 / 63 °F
Wind: 2 mph from Northwest

Location: Bad Lippspringe

Current Time: Apr 22, 2015 at 4:08:50 AM

Latest Report: Apr 22, 2015 at 3:00 AM


Visibility: 6 mi

Pressure: 30.45 "Hg

Humidity: 87%

Dew point: 37 °F

Location of HöxterLocation

Historic Weather in Höxter — Graph

°F

Höxter temperature yesterday

Maximum temperature yesterday: 69 °F (at 5:00 PM)
Minimum temperature yesterday: 34 °F (at 7:00 AM)
Average temperature yesterday: 51 °F

Past Weeks' High & Low Weather Summary

 TemperatureHumidityPressure
High72 °F (Apr 15, 5:00 PM)98% (Apr 9, 5:00 AM)30.64 "Hg (Apr 9, 5:00 AM)
Low28 °F (Apr 7, 6:00 AM)24% (Apr 21, 5:00 PM)29.92 "Hg (Apr 15, 8:00 PM)
Average49 °F67%30.27 "Hg
* Reported Apr 7 2:00 AM — Apr 22 2:00 AM, Höxter, Weather by CustomWeather, © 2015

Note: Actual official high and low records may vary slightly from our data, if they occured in-between our weather recording intervals... More about our weather records

Advertising

Höxter weather history for previous 24 hours

 ConditionsComfort  
Time TempWeatherWind HumidityBarometerVisibility
2:00 AM
Wed, Apr 22
41 °FPassing clouds.2 mph86%30.45 "Hg6 mi
1:00 AM43 °FClear.3 mph83%30.44 "Hg7 mi
12:00 AM46 °FClear.3 mph80%30.44 "Hg9 mi
11:00 PM
Tue, Apr 21
49 °FClear.3 mph64%30.43 "Hg19 mi
10:00 PM52 °FClear.5 mph49%30.41 "Hg25 mi
9:00 PM56 °FClear.5 mph44%30.39 "Hg31 mi
8:00 PM60 °FSunny.5 mph42%30.37 "Hg22 mi
7:00 PM65 °FSunny.7 mph36%30.35 "Hg17 mi
6:00 PM67 °FSunny.6 mph29%30.35 "Hg16 mi
5:00 PM69 °FSunny.7 mph24%30.36 "Hg15 mi
4:00 PM68 °FSunny.6 mph28%30.37 "Hg12 mi
3:00 PM67 °FSunny.6 mph29%30.38 "Hg19 mi
2:00 PM65 °FSunny.7 mph33%30.40 "Hg12 mi
1:00 PM64 °FPassing clouds.3 mph39%30.42 "Hg12 mi
12:00 PM60 °FSunny.2 mph54%30.43 "Hg9 mi
11:00 AM56 °FSunny.2 mph61%30.44 "Hg10 mi
10:00 AM50 °FSunny.2 mph71%30.45 "Hg8 mi
9:00 AM47 °FSunny.2 mph74%30.45 "Hg10 mi
8:00 AM41 °FPassing clouds.1 mph83%30.45 "Hg12 mi
7:00 AM34 °FSunny.1 mph95%30.44 "Hg8 mi
6:00 AM35 °FClear.1 mph94%30.42 "Hg9 mi
5:00 AM35 °FClear.1 mph96%30.42 "Hg7 mi
4:00 AM36 °FClear.1 mph95%30.42 "Hg9 mi
Weather by CustomWeather, © 2015

See weather overviewHow to use our weather pages